Wind_Speed
17 17 17 16 17 16 16 16 15 15 14 14 13 13 12 12 11 11 10 10 9 9 10 10 10 10 9 9 10 11 12 12 13 13 12 14 14 13 14 15 14 15 14 14 14 13 12 11 11 10 10 10 10 11 11 13 14 14 15 16 18 17 17 15 16 16 11 10 5 4 3 4 4 7 8 8 9 12 12 10 14 18 16 10 7 10 13 14
16 16 16 16 16 16 16 16 15 15 14 14 13 13 12 11 10 10 10 9 9 9 9 10 9 9 9 8 9 9 11 11 12 12 11 12 12 12 13 13 13 13 12 12 12 11 10 7 7 8 9 9 10 11 10 13 16 16 16 17 19 17 17 17 18 16 8 8 9 9 3 2 5 9 9 9 10 11 12 13 15 22 22 15 11 12 14 16
15 15 15 16 16 16 16 15 15 14 14 14 13 12 11 10 10 9 9 8 8 8 9 9 8 8 8 7 7 7 8 9 10 10 10 11 11 11 11 11 12 11 11 12 11 10 9 5 6 8 9 10 11 12 12 13 16 17 17 19 19 17 17 18 19 17 11 11 13 11 8 5 7 10 9 9 11 12 14 15 18 23 24 19 16 13 14 18
14 14 14 15 15 15 15 14 14 14 14 13 12 12 10 9 9 9 8 8 8 8 8 8 8 7 6 6 5 4 3 5 8 8 8 9 9 10 10 10 10 9 11 12 13 11 10 8 9 10 11 12 12 13 14 15 15 15 18 20 19 17 16 15 13 13 13 13 14 14 12 10 10 10 9 9 11 12 12 15 18 27 31 22 17 14 14 20
12 13 13 14 14 14 14 13 13 13 13 12 11 11 9 9 8 8 7 7 7 7 8 7 7 6 5 5 3 2 4 4 5 5 5 7 8 9 10 10 9 10 11 11 12 13 12 12 11 11 13 14 13 14 16 16 15 15 17 19 18 18 17 13 10 9 10 11 14 16 15 14 12 11 11 11 11 10 12 17 16 26 36 24 16 16 17 21
11 12 12 12 12 12 12 12 11 11 11 11 10 10 9 8 7 7 6 6 7 7 8 7 6 5 4 4 4 6 6 2 7 6 5 6 7 8 10 10 10 11 11 11 12 12 12 12 11 11 13 14 14 16 17 16 16 18 18 17 17 18 18 14 10 9 8 10 13 15 15 13 12 13 12 12 12 10 15 21 16 19 26 19 15 18 21 24
9 10 10 11 10 10 10 10 10 10 10 10 10 9 8 7 7 6 6 6 6 7 7 6 5 4 4 3 5 7 7 6 9 6 6 5 5 7 9 10 11 11 11 12 12 9 8 10 10 11 12 13 14 15 17 16 17 19 18 17 16 15 16 16 13 12 11 11 12 12 13 13 13 13 11 11 11 11 15 20 21 18 15 15 17 20 23 26
8 8 8 9 9 9 8 8 8 8 9 9 9 8 8 7 6 6 5 6 6 6 6 5 5 4 3 3 5 5 6 9 7 6 7 5 5 6 8 9 11 11 11 12 12 8 7 8 10 12 12 13 13 13 15 16 17 19 19 17 17 16 15 15 14 15 14 13 12 12 14 14 14 13 11 11 11 12 13 16 22 21 14 16 20 22 22 23
8 8 7 7 7 7 7 7 7 8 8 8 8 8 7 7 6 6 5 5 5 5 5 5 4 4 3 5 4 1 4 10 8 8 8 6 6 6 8 10 10 11 13 12 9 8 9 8 10 11 13 14 12 13 13 14 15 16 18 18 17 17 15 14 15 16 15 14 13 13 15 14 13 13 13 13 10 10 14 17 19 22 20 18 21 22 22 21
8 8 7 7 7 7 7 7 7 8 7 8 8 7 7 7 6 6 6 5 5 5 4 4 5 4 5 6 5 3 6 14 12 9 7 5 6 5 7 9 10 12 12 8 7 10 10 8 9 10 13 14 11 12 13 14 14 12 13 16 16 16 16 15 14 14 14 14 13 13 14 14 11 12 13 11 10 10 14 17 15 21 20 18 21 21 23 22
8 8 8 7 6 6 7 8 8 8 7 7 7 7 7 6 6 6 6 5 5 4 4 5 5 5 7 9 6 1 8 14 11 7 5 4 5 4 7 9 10 12 10 4 9 10 9 8 9 11 10 10 10 11 14 16 15 13 11 13 15 16 17 17 16 14 14 14 14 14 14 13 11 12 11 10 14 13 14 17 17 19 18 18 21 21 24 23
9 8 8 7 6 6 6 8 9 9 8 8 8 8 7 7 6 6 6 5 5 4 4 5 5 7 8 8 8 5 8 11 9 6 4 4 4 4 6 9 10 11 7 4 8 7 11 12 10 12 9 7 8 8 11 13 13 14 13 14 16 17 19 19 18 16 15 15 14 13 14 13 13 12 9 10 13 13 12 15 15 16 18 20 21 21 23 21
9 8 7 7 6 5 5 7 9 10 9 9 9 9 8 7 6 6 6 5 5 5 5 6 6 7 6 4 6 8 8 7 6 4 4 5 4 4 4 7 11 12 9 7 6 8 14 14 11 11 10 10 10 8 8 9 11 14 14 15 16 17 20 20 17 15 15 16 13 13 13 15 15 13 11 9 10 10 11 12 9 11 16 20 21 21 20 20
8 8 7 7 6 6 5 5 7 9 10 10 10 10 9 8 7 7 6 5 5 5 6 7 6 7 7 4 6 6 6 6 5 4 5 6 5 6 4 6 9 11 15 14 8 11 13 12 12 11 10 11 11 12 10 10 12 12 13 15 15 18 20 17 15 13 13 12 13 12 13 14 13 14 12 8 9 10 9 11 10 10 15 18 19 21 19 20
8 7 7 7 6 6 5 5 5 6 8 9 10 11 10 9 7 7 6 5 5 5 7 7 8 7 4 5 8 6 5 5 4 5 6 6 6 6 5 6 7 9 13 14 9 10 11 9 10 9 7 8 9 11 10 12 14 11 13 14 16 19 14 12 15 12 11 12 14 12 15 15 13 15 13 8 9 10 11 16 12 10 15 16 16 19 17 19
7 6 6 6 6 5 5 5 5 5 5 6 7 9 9 9 8 7 7 6 6 6 8 8 8 7 2 3 7 7 5 5 5 5 6 5 6 2 2 6 6 6 6 7 6 7 7 7 7 8 9 10 11 12 11 12 13 12 13 13 15 17 9 12 14 12 11 13 14 14 17 14 11 15 14 9 9 8 12 16 10 8 13 14 15 16 14 17
5 5 5 6 6 5 5 5 5 5 4 4 3 4 6 8 9 8 7 6 6 6 7 8 7 7 5 3 6 7 5 5 5 4 6 8 8 4 5 4 3 4 3 3 3 4 5 5 6 7 8 10 11 12 12 14 14 13 13 13 14 14 9 11 12 11 10 12 11 13 19 14 8 12 11 9 9 9 11 11 8 9 11 12 13 14 14 17
4 4 5 5 5 6 5 5 5 5 4 2 1 1 2 3 6 8 8 7 7 8 7 7 7 6 7 5 4 5 3 6 6 5 6 10 13 10 9 5 4 4 3 3 4 2 4 6 7 8 9 10 11 14 14 12 9 6 8 12 13 11 10 9 9 9 10 12 11 11 16 13 9 10 10 10 9 11 12 11 10 10 9 10 12 13 14 15
5 4 4 4 5 5 5 5 4 4 3 1 0 2 3 4 3 4 8 9 9 10 6 5 8 4 4 4 2 4 8 10 7 6 7 8 13 11 9 8 6 6 6 7 6 3 6 7 8 11 11 11 12 12 10 6 7 7 12 11 11 10 12 10 6 8 10 11 12 12 15 16 12 10 11 11 9 10 12 11 12 11 9 9 10 12 12 13
5 5 5 5 5 4 3 3 2 2 2 0 2 4 6 7 6 7 9 11 11 13 9 4 9 4 3 1 6 10 11 10 8 8 8 8 9 9 9 9 8 9 9 10 8 5 8 10 12 13 10 9 9 7 7 7 6 8 12 9 7 9 11 9 7 8 8 9 10 12 16 16 14 13 12 12 11 11 12 12 12 13 11 9 10 14 15 16
5 5 5 5 5 4 4 3 2 2 0 2 3 5 5 9 4 6 9 9 10 15 11 3 8 8 6 5 8 10 8 7 8 9 10 9 8 9 11 10 10 11 10 10 9 6 8 12 14 14 11 10 10 9 11 13 11 10 10 9 7 9 9 6 8 8 6 8 10 12 15 14 15 16 12 11 12 12 14 13 12 13 13 11 12 15 15 16
7 6 6 5 4 4 4 3 3 2 1 1 3 5 3 7 7 8 11 9 9 15 15 9 11 15 13 10 8 9 8 8 8 9 11 10 9 10 10 8 10 12 10 9 10 9 11 14 14 12 12 12 11 12 15 15 15 13 11 11 10 12 10 5 9 6 3 4 8 9 12 14 14 16 13 12 14 13 13 15 14 15 15 14 15 16 16 16
7 6 6 6 5 5 4 4 3 1 0 1 2 3 3 5 9 9 11 10 9 12 17 18 17 16 16 15 12 11 12 12 10 11 13 11 11 12 11 10 10 11 12 13 12 12 13 12 10 11 15 14 12 12 12 12 14 13 11 13 13 13 13 7 5 5 5 4 7 10 14 16 12 13 15 15 17 17 15 16 17 16 16 14 15 18 17 14
7 7 7 6 6 5 4 4 3 2 1 1 3 4 4 5 8 8 10 10 9 11 16 19 18 17 17 15 13 13 14 14 12 14 15 11 11 14 12 13 12 11 13 14 13 14 16 12 8 10 13 11 9 9 10 10 12 13 13 15 16 13 13 10 4 3 6 8 11 13 16 17 12 11 15 15 16 17 16 15 15 16 17 15 15 19 18 15
7 7 7 7 7 6 6 5 4 1 1 2 4 3 3 7 8 9 9 8 10 10 12 17 18 17 16 14 12 12 13 14 13 17 19 13 12 16 12 11 14 13 13 13 15 16 14 10 8 8 10 9 8 9 10 10 12 13 14 15 17 16 13 11 7 5 6 10 12 12 11 13 13 14 15 17 17 17 15 14 14 14 15 14 14 16 15 12
7 7 7 7 7 7 7 5 4 1 5 8 7 6 7 8 7 9 8 8 11 9 9 14 16 16 17 16 13 9 11 14 11 15 20 13 13 17 12 10 13 14 12 12 14 16 10 7 7 6 9 10 11 13 12 12 13 13 13 12 12 14 13 12 12 10 10 10 9 9 9 9 11 15 15 15 17 17 16 14 14 14 14 15 15 14 11 8
8 7 7 7 7 8 7 5 5 2 7 4 9 9 10 8 6 7 6 7 9 9 12 14 14 15 16 16 14 12 11 12 10 14 16 12 13 15 13 13 12 12 12 10 9 11 11 9 8 7 9 10 12 14 12 12 14 13 10 10 10 11 13 13 13 15 14 13 10 9 11 13 13 15 12 11 14 15 15 14 13 13 14 14 15 16 16 14
8 8 8 8 7 7 7 6 6 4 4 9 13 10 9 7 6 6 3 5 4 11 14 16 15 13 13 13 15 16 10 7 14 16 13 12 13 13 14 15 13 11 12 12 10 8 9 11 9 9 11 13 14 13 12 12 14 13 9 8 10 11 12 12 13 15 14 14 13 12 13 12 12 14 12 10 12 12 13 13 12 12 12 14 14 14 15 15
10 9 8 8 7 7 7 6 7 7 8 10 10 8 7 6 6 5 4 4 5 10 13 16 16 12 13 13 15 19 13 8 14 14 11 13 14 15 15 14 12 12 11 14 15 10 8 10 9 9 11 13 13 12 11 11 12 12 10 9 11 12 13 12 12 14 13 12 13 14 14 11 10 13 12 11 14 13 12 13 14 13 11 12 13 12 11 11
11 10 10 9 8 7 7 7 7 8 9 9 7 7 7 7 6 5 5 5 6 9 10 13 15 13 15 15 15 19 17 12 13 12 11 13 14 16 17 15 13 13 10 11 15 13 11 12 10 11 12 12 12 12 10 10 10 10 10 11 12 13 14 12 12 13 12 10 12 15 15 14 9 9 10 10 13 14 14 13 13 12 11 10 12 12 10 9
13 13 11 10 9 8 7 8 7 8 9 8 7 6 6 6 6 6 6 5 8 10 11 11 13 14 17 18 16 17 18 16 13 12 12 13 14 15 15 15 14 12 11 12 13 14 13 12 10 10 12 12 13 13 10 10 11 11 10 12 12 12 11 12 13 13 9 7 11 14 15 16 12 8 8 7 8 9 10 11 12 12 10 9 12 10 7 8
16 15 13 12 11 9 9 9 7 7 8 7 7 6 5 6 9 12 10 7 6 7 12 10 11 14 17 18 17 16 17 18 16 14 14 13 14 16 14 13 12 10 12 12 11 13 14 13 11 10 11 10 11 12 12 11 12 12 12 12 11 8 7 8 8 7 7 8 9 9 11 12 12 10 10 9 7 8 8 9 12 12 11 11 11 10 7 7
18 17 16 14 12 10 10 10 9 8 7 7 7 7 6 8 11 14 14 10 5 4 8 10 11 13 15 18 18 16 15 16 16 16 16 14 13 14 15 14 12 12 10 8 8 11 12 13 13 12 12 10 8 11 13 11 10 11 12 10 8 5 5 5 5 5 7 10 10 6 6 6 8 8 8 7 8 11 11 8 10 12 13 14 10 7 7 5
20 19 19 17 14 12 11 11 10 9 7 7 8 8 9 12 13 14 15 13 11 8 7 9 11 12 15 17 16 15 16 15 14 15 15 15 15 15 15 14 14 13 10 8 9 10 10 10 10 12 12 9 7 10 11 9 9 11 12 10 9 9 7 6 5 4 4 6 8 5 2 5 5 1 3 7 9 10 11 9 11 13 14 14 10 7 7 9
20 20 21 20 17 14 12 12 12 10 9 8 8 10 13 15 14 15 14 13 13 11 9 10 11 12 15 16 13 14 17 15 13 15 15 15 16 15 15 15 14 13 12 11 10 9 11 11 10 11 11 7 7 9 9 10 11 9 9 11 12 11 11 10 8 9 9 7 7 6 6 7 5 1 6 9 7 7 9 9 10 11 10 10 11 10 10 15
18 20 21 20 19 16 13 13 13 12 12 10 9 14 18 16 15 15 13 12 11 10 11 13 13 15 15 13 13 13 16 14 12 13 15 15 16 16 14 14 13 13 13 13 10 7 9 10 7 9 11 11 11 10 8 9 9 7 7 10 10 9 11 11 9 10 10 7 7 9 12 11 8 6 8 9 9 9 10 9 9 10 10 11 12 14 16 18
17 18 19 19 18 17 15 14 14 14 13 12 14 17 18 17 17 17 14 12 10 8 11 13 12 14 15 13 13 12 13 13 12 13 14 13 14 14 13 12 11 10 9 9 10 8 7 9 7 8 10 12 11 10 11 11 11 10 9 7 5 7 11 10 7 6 6 6 6 8 12 12 10 7 8 11 12 11 10 9 11 12 12 13 15 16 16 15
17 16 18 15 11 14 16 12 13 15 14 15 18 20 20 19 18 17 14 12 11 10 12 13 11 11 14 14 13 13 14 14 14 15 15 13 12 12 11 10 10 10 9 8 8 7 7 11 11 11 13 13 10 10 13 14 14 15 14 9 7 7 7 8 7 5 5 5 5 8 11 12 11 7 8 13 13 11 10 11 12 12 11 13 16 15 12 12
16 16 16 10 9 15 16 12 13 15 15 17 20 20 19 19 18 17 15 13 12 13 14 14 13 13 14 15 13 13 15 15 14 15 15 13 10 9 10 9 8 8 9 9 9 8 7 10 10 10 13 13 10 11 11 11 12 14 15 12 12 11 8 9 9 7 7 5 4 7 9 7 3 2 5 11 12 12 12 12 12 12 12 13 16 14 12 13
15 15 11 7 12 16 14 12 14 16 17 20 21 19 18 17 18 17 15 13 11 13 14 14 14 15 14 15 15 14 14 15 14 14 14 10 8 8 10 10 9 8 6 7 10 9 8 9 10 10 11 11 10 11 10 10 11 12 13 11 11 11 11 12 12 11 9 6 4 5 5 2 4 4 2 5 8 12 13 11 12 13 13 14 15 12 11 13
15 13 10 12 16 16 12 12 15 16 19 20 20 20 19 18 18 15 12 12 13 14 14 13 14 13 12 13 14 15 15 16 15 15 14 11 10 10 11 10 10 9 6 4 6 8 8 8 11 12 12 13 13 12 11 11 10 10 10 10 10 9 9 9 9 9 10 8 6 7 5 1 5 3 4 3 4 11 14 11 11 14 15 16 15 11 10 12
12 10 10 14 16 14 14 14 15 16 18 20 19 19 19 20 18 14 12 12 12 13 14 14 14 13 12 11 11 13 14 15 15 15 15 13 10 8 8 10 9 8 7 6 5 7 9 9 11 14 14 15 15 15 15 13 12 12 13 13 13 13 12 9 7 8 10 10 10 11 6 1 4 1 4 4 3 8 14 13 12 14 17 19 16 13 11 12
9 6 10 15 16 15 14 14 15 17 19 19 19 18 19 20 18 16 16 15 13 12 12 12 12 11 11 11 10 11 12 14 15 14 14 11 7 6 5 7 8 6 6 8 7 9 10 10 12 15 16 17 17 18 19 16 14 15 15 15 16 17 16 15 13 13 13 13 12 10 6 2 3 2 3 3 2 5 10 13 14 15 19 19 16 14 12 12
11 10 10 14 16 16 17 15 15 16 17 18 19 20 20 19 17 16 16 15 15 13 13 13 11 10 10 10 11 12 11 12 12 12 13 11 8 7 4 5 7 5 4 7 9 10 8 6 10 12 12 13 13 13 15 14 13 13 11 11 12 14 16 17 16 14 14 14 11 10 8 2 2 2 2 3 4 4 7 10 12 14 16 16 16 16 14 13
9 9 9 11 14 15 15 17 16 15 16 17 17 18 19 18 17 15 14 14 13 12 12 12 11 10 10 10 11 11 11 12 12 12 12 11 10 10 8 7 7 6 9 12 13 12 8 5 8 10 8 7 8 7 6 6 7 9 10 10 11 12 14 13 11 10 12 11 11 12 10 3 1 2 2 4 6 6 8 10 11 12 12 11 12 14 14 14
4 3 5 9 12 13 13 14 16 16 17 17 15 14 15 17 16 15 15 15 13 12 12 12 11 11 11 11 11 11 11 12 13 13 12 12 12 11 10 8 5 9 15 16 16 15 12 10 12 13 13 14 14 14 13 12 13 13 13 14 15 14 13 10 10 12 12 12 13 14 12 8 6 6 5 4 5 7 9 10 12 12 11 11 10 10 10 11
1 3 7 9 11 9 9 10 12 13 13 14 15 13 12 14 14 13 13 12 11 12 13 13 12 12 11 11 12 12 12 12 14 14 14 14 13 10 9 7 6 13 17 14 15 16 13 14 15 15 19 21 20 22 21 19 19 19 18 19 18 17 16 14 14 14 13 13 14 13 12 14 14 11 9 6 5 7 8 9 12 11 9 10 10 8 7 7
3 2 6 12 12 5 5 9 11 9 8 8 11 11 10 11 12 13 12 9 8 9 10 12 12 12 12 12 12 13 13 13 14 14 13 14 13 12 10 6 6 12 12 8 10 13 12 14 16 16 19 21 20 21 20 20 21 20 20 21 20 20 20 19 19 18 17 18 20 18 17 20 20 15 13 12 11 10 9 9 12 12 11 13 13 10 9 9
7 6 5 12 13 6 7 12 12 8 7 8 8 9 9 9 10 11 12 11 8 7 8 10 10 10 12 13 13 13 12 11 11 12 12 12 12 12 11 9 7 9 9 6 6 10 12 12 12 13 17 19 19 19 19 19 20 20 21 22 21 22 22 21 22 22 21 23 24 23 23 25 24 19 18 17 16 14 11 10 12 13 13 15 16 14 13 12
4 6 5 7 9 5 8 11 10 8 8 9 10 8 7 8 8 8 8 9 8 7 7 8 9 10 11 11 11 10 11 12 11 12 13 11 10 10 10 10 8 7 8 7 6 10 13 11 8 10 14 16 16 17 18 18 19 21 22 21 20 21 22 22 23 22 22 23 23 23 25 26 22 18 18 19 19 18 16 15 15 17 17 18 19 19 18 16
2 2 2 4 4 1 6 6 6 8 7 6 5 5 4 5 6 6 7 8 6 6 7 7 9 9 7 7 9 9 11 15 14 13 14 12 10 8 8 8 8 8 10 10 9 11 12 10 8 9 13 16 14 14 16 17 19 23 24 23 22 22 22 23 23 22 21 22 22 23 25 25 20 17 18 19 18 18 18 19 19 19 20 21 22 22 22 19
4 3 0 3 2 3 5 6 5 6 5 2 3 3 3 4 5 6 8 8 6 6 8 8 8 7 6 8 12 13 15 18 18 18 18 16 14 11 10 10 10 10 10 9 9 10 10 11 11 11 14 16 14 13 15 15 16 18 18 18 18 18 19 20 21 21 21 23 25 25 25 23 20 19 18 17 18 17 15 17 18 16 15 17 20 22 23 21
Wind_Direction
282 280 278 277 276 275 275 275 275 276 276 275 277 279 282 287 292 298 299 299 298 296 296 289 283 278 273 270 265 261 260 260 258 258 256 254 254 252 248 246 245 242 238 234 231 228 224 225 223 223 223 222 228 217 207 222 225 228 238 241 244 248 250 252 250 255 263 237 257 1 213 225 262 278 283 271 273 259 244 238 253 250 235 237 224 203 209 212
283 281 280 278 276 275 274 273 273 273 272 271 272 274 280 286 292 297 297 298 296 295 294 287 281 273 272 270 266 265 262 261 259 258 254 252 251 248 247 244 242 239 235 229 223 220 214 216 226 220 218 221 234 235 224 227 226 224 232 240 243 247 250 253 253 259 280 249 277 351 339 265 261 270 282 272 272 262 247 231 233 246 241 226 211 200 202 209
283 282 279 278 276 274 273 271 271 270 268 267 267 270 276 283 289 293 293 294 293 294 291 286 279 272 273 270 270 272 266 267 264 257 251 249 247 245 245 242 238 234 226 215 207 199 183 186 246 242 225 224 230 235 232 227 227 228 233 240 243 246 253 260 262 264 282 278 280 300 293 271 268 276 274 270 271 257 249 236 226 237 237 221 215 206 200 210
283 281 278 277 275 273 271 269 268 266 264 263 263 266 272 279 285 288 289 290 291 292 289 284 277 272 271 271 274 269 288 302 271 256 251 247 249 245 240 238 233 226 216 212 205 182 166 187 225 237 230 229 232 231 227 224 229 232 233 240 244 249 262 270 272 270 270 271 270 274 278 275 279 277 263 275 272 255 250 239 229 235 238 233 228 225 218 216
284 280 277 274 272 271 268 266 265 262 260 258 257 260 265 273 277 282 286 287 288 287 284 279 273 270 268 265 238 182 76 34 268 261 267 250 247 243 238 232 223 217 208 209 206 183 184 203 210 222 226 228 232 231 226 227 232 235 237 242 249 256 267 274 275 273 258 250 253 258 268 276 275 266 266 275 260 256 256 245 240 235 239 244 238 235 231 217
288 282 276 272 269 267 265 262 260 257 256 252 252 255 258 265 270 276 280 282 284 283 281 275 268 264 259 245 195 171 125 126 264 274 284 257 248 244 235 224 216 214 203 199 195 182 189 198 202 215 222 227 231 233 231 231 234 238 245 248 252 260 264 263 263 266 260 251 252 257 263 266 265 265 268 263 249 256 253 248 255 236 228 235 234 235 230 217
297 288 278 271 266 264 261 258 254 252 250 247 249 250 254 260 265 269 272 276 279 280 280 272 265 251 245 218 193 192 182 237 268 273 281 276 260 246 231 219 211 206 200 196 178 173 195 191 204 218 222 231 234 236 236 237 239 238 243 248 252 260 259 255 257 262 262 258 258 257 254 251 257 266 266 255 243 247 249 246 252 243 211 208 225 234 229 225
314 303 289 276 266 262 257 252 249 245 244 245 247 248 252 254 259 263 262 269 272 280 280 269 259 236 229 194 193 210 233 259 275 277 283 287 267 246 224 214 207 197 195 195 165 162 209 202 215 220 223 234 238 243 242 240 240 236 243 252 255 257 256 253 255 259 257 257 260 253 250 252 254 260 259 254 243 236 237 231 236 239 220 215 227 234 232 232
329 323 310 291 273 260 251 247 242 241 242 244 247 247 249 250 253 255 253 261 266 275 278 267 251 223 206 172 165 101 271 272 293 294 291 290 264 241 221 203 195 195 185 178 157 177 214 213 222 224 232 242 249 254 244 236 237 239 249 254 254 254 254 255 256 258 254 250 252 249 248 252 251 252 253 249 238 215 220 226 230 233 228 230 233 233 231 226
329 330 325 309 286 263 247 241 237 241 243 245 248 246 247 247 247 248 248 254 256 264 269 256 237 209 181 156 133 70 278 279 296 290 285 290 259 230 217 191 182 189 169 162 180 195 207 218 232 235 245 247 251 258 241 233 238 249 258 253 251 254 251 253 255 253 246 243 247 244 244 250 241 241 249 237 207 198 229 240 239 236 232 240 240 230 225 215
319 323 327 322 303 275 249 239 238 241 243 249 249 244 245 243 243 245 243 245 247 251 248 242 228 195 177 164 152 111 283 280 287 282 277 273 241 213 203 183 174 166 143 180 209 192 201 228 244 230 234 242 247 262 248 238 242 254 266 255 251 255 252 250 249 245 242 245 242 233 241 244 226 236 246 215 197 201 235 247 244 241 235 243 241 223 217 208
311 313 319 320 314 294 261 243 240 240 242 248 248 246 246 242 242 242 241 243 238 236 235 235 219 197 190 193 208 244 284 275 275 284 266 245 219 187 191 179 163 143 131 219 220 208 215 221 228 218 226 249 247 267 253 235 241 253 258 259 258 258 253 246 241 239 240 244 231 223 242 235 221 238 222 199 217 215 227 245 248 243 230 235 236 218 213 210
303 303 307 311 312 304 279 252 243 242 242 244 246 245 243 242 242 241 242 238 231 227 226 224 212 202 190 205 248 263 275 267 265 272 243 230 195 156 164 170 163 156 168 209 239 248 230 219 214 215 239 251 241 270 267 228 241 254 250 257 260 256 251 239 230 229 237 241 215 207 237 228 220 227 203 202 238 233 235 234 230 243 230 221 219 214 211 219
296 296 297 302 305 301 291 267 249 243 241 241 243 241 242 242 238 241 240 232 231 218 215 217 203 196 186 209 277 280 265 266 260 248 227 210 168 139 137 159 169 168 174 182 206 236 230 220 210 208 229 237 239 270 274 240 246 254 247 248 249 256 253 224 205 214 228 224 191 198 240 238 219 208 202 217 228 235 245 204 198 248 237 216 208 210 210 220
292 290 290 294 299 299 291 275 260 250 244 241 240 238 238 238 238 241 238 230 227 212 214 212 196 195 207 262 282 288 263 261 248 216 204 187 139 131 144 149 158 159 171 176 187 226 224 203 199 207 234 249 251 264 263 241 239 240 243 240 236 252 247 187 182 204 219 200 184 212 244 245 228 208 210 228 221 230 222 192 197 241 231 222 213 213 213 217
292 289 289 291 295 298 291 281 273 263 254 247 245 242 239 238 237 236 236 231 222 215 211 206 201 191 158 286 269 282 279 247 233 203 188 146 93 95 158 129 141 150 164 183 185 211 205 181 203 226 248 255 245 248 254 245 233 225 238 243 242 245 212 167 186 202 221 206 193 217 236 243 230 209 212 222 220 225 218 206 208 219 215 224 223 221 218 213
305 296 293 292 293 297 293 287 277 273 272 263 263 256 247 242 238 235 236 229 218 216 207 205 208 199 205 263 257 281 294 222 216 204 181 127 112 254 254 137 150 178 156 181 182 179 187 197 226 235 245 245 236 242 250 249 235 218 229 239 248 250 206 181 192 194 223 220 204 218 232 240 203 191 205 215 225 226 222 224 222 218 220 224 222 221 214 205
327 314 309 302 297 295 292 288 281 284 289 283 291 262 273 268 246 237 232 229 217 204 199 205 195 201 257 285 267 275 256 204 207 197 188 142 149 210 231 173 184 213 195 239 244 233 218 222 240 247 245 235 234 238 237 253 261 256 270 247 239 253 234 221 216 197 205 215 218 225 231 226 182 185 211 215 234 228 218 231 236 234 235 229 222 220 216 208
343 342 336 329 317 305 296 293 286 293 296 286 156 123 54 16 336 283 242 230 216 185 165 238 215 176 321 319 153 204 206 211 216 191 195 174 165 188 197 181 202 217 216 234 237 242 229 229 243 241 236 232 233 236 241 286 327 330 317 274 235 249 244 237 228 183 181 207 222 223 227 224 203 198 209 217 238 225 215 223 226 227 226 222 226 227 225 221
333 338 343 350 348 341 334 322 312 312 290 169 131 122 56 13 1 334 268 230 218 187 151 263 237 175 12 297 169 191 207 220 217 194 202 200 173 179 194 197 213 223 224 228 228 230 228 237 246 236 237 244 234 238 271 297 310 313 317 293 239 248 243 223 201 183 192 225 231 226 231 232 226 221 219 228 233 223 223 223 215 220 225 227 241 244 236 234
310 317 326 335 343 351 357 357 10 16 92 111 136 137 46 356 324 296 273 240 228 210 183 198 229 217 229 209 192 210 225 231 214 200 208 207 177 185 208 206 208 222 228 227 226 227 233 244 249 243 250 257 243 247 263 267 278 295 303 292 263 257 247 191 164 175 197 235 244 241 242 240 231 232 237 232 224 224 230 232 225 225 237 251 257 250 236 235
294 299 303 308 320 326 336 346 3 29 80 108 157 158 30 328 251 249 270 255 237 230 225 223 222 231 230 207 207 221 218 221 217 202 205 210 196 196 208 211 215 222 225 224 227 237 240 243 249 248 250 255 256 260 260 262 275 282 278 273 270 262 250 169 146 179 217 242 244 239 249 255 239 233 243 239 234 236 231 235 238 232 236 245 248 246 234 235
289 288 288 293 297 299 309 319 328 1 19 139 203 230 320 288 245 255 269 251 234 232 235 232 225 229 227 217 224 225 211 217 219 205 207 212 205 199 204 215 224 228 228 220 222 240 243 245 254 240 236 250 266 275 272 270 273 271 265 260 261 260 254 231 182 227 263 263 250 254 270 280 263 236 241 243 238 237 233 238 242 238 237 236 241 247 241 239
289 282 279 282 283 286 292 292 301 337 341 274 260 281 309 278 262 275 272 255 253 244 230 230 227 224 222 218 230 232 216 217 218 205 209 220 205 199 209 224 234 241 239 225 221 245 254 254 256 234 233 251 268 276 272 266 263 256 251 253 258 266 266 260 243 253 274 266 255 261 273 273 257 234 237 241 232 227 233 241 240 237 236 233 239 249 252 248
293 285 281 277 278 282 278 282 287 277 25 355 305 302 300 280 274 281 275 265 273 262 225 221 223 222 216 210 221 227 213 222 230 213 222 242 207 199 214 228 238 241 237 237 231 238 254 251 233 237 254 260 260 263 258 253 258 257 250 248 255 266 276 276 269 264 265 261 248 241 255 257 241 236 239 237 229 224 231 237 236 235 233 228 227 239 251 247
295 290 287 278 277 279 277 289 279 232 43 2 318 292 281 275 279 282 273 269 275 257 212 214 218 214 205 203 210 208 214 231 234 214 226 239 201 206 230 228 236 244 242 265 251 229 246 254 222 245 263 256 257 259 254 247 251 260 258 250 254 261 266 268 264 258 252 262 252 217 236 262 251 250 249 239 232 226 227 229 231 233 230 224 218 217 230 238
292 291 292 283 278 278 275 286 272 140 68 331 266 267 276 269 281 289 277 279 267 220 202 208 215 219 207 205 205 196 216 226 203 202 218 222 201 214 239 229 233 245 240 273 273 228 236 245 236 259 261 254 258 254 249 243 244 255 265 263 261 260 259 255 255 256 254 267 267 222 237 264 263 261 256 241 234 219 214 222 227 229 226 222 216 215 226 243
285 285 289 286 281 279 271 274 264 208 179 232 236 251 270 266 281 288 288 298 238 183 197 203 208 219 207 206 207 201 212 206 193 204 212 217 211 209 231 235 237 250 239 243 255 242 235 237 249 267 257 252 254 249 245 241 241 249 267 274 262 259 263 259 255 257 256 262 261 242 241 252 255 258 252 232 226 216 211 217 220 222 222 219 217 222 227 230
281 279 283 285 283 281 271 270 265 248 248 249 243 249 257 265 276 267 263 276 208 190 205 209 210 208 194 199 208 207 215 211 207 213 206 214 215 206 222 234 240 262 257 234 241 254 246 243 258 264 252 249 246 245 250 248 248 251 258 273 270 262 261 259 257 260 260 255 254 250 245 248 254 252 250 232 220 223 222 216 214 215 215 213 208 210 207 200
283 278 278 279 279 280 273 268 260 252 260 261 252 249 251 259 264 258 250 242 232 217 205 215 222 208 196 203 208 211 217 222 218 209 200 215 221 215 221 222 229 256 258 232 240 252 244 235 247 257 254 250 247 251 252 242 250 257 254 265 269 257 249 253 255 256 259 254 252 254 248 252 258 242 246 242 217 215 220 214 205 202 204 204 196 196 202 207
284 281 278 276 274 274 268 265 256 246 254 255 250 244 245 257 256 249 238 240 255 225 195 216 223 205 202 208 209 208 213 223 220 204 205 219 221 220 226 225 229 249 251 241 244 253 250 232 231 253 255 251 256 264 261 244 247 257 255 262 269 258 248 254 251 245 251 253 251 258 255 250 251 243 242 232 201 200 207 202 188 182 190 197 189 184 196 215
280 279 278 275 269 266 263 265 262 254 254 253 246 232 237 261 247 237 241 259 272 211 199 220 217 203 206 211 214 208 209 221 220 212 218 221 214 213 223 226 222 235 247 244 241 250 260 253 248 252 240 238 253 258 257 245 240 246 248 253 262 262 253 252 248 243 254 261 259 273 278 253 237 244 243 225 215 210 193 185 188 186 191 197 186 177 194 217
273 274 276 275 270 263 258 258 259 256 252 248 238 222 231 255 244 241 249 254 253 221 229 233 215 208 211 213 216 210 212 223 220 219 221 219 217 215 223 228 220 225 243 253 248 248 252 251 254 251 227 219 240 251 253 241 225 236 244 245 249 253 259 255 248 240 246 262 267 278 307 273 232 244 249 216 197 193 180 167 174 181 196 201 192 191 209 216
269 269 270 270 269 264 255 253 251 249 246 235 225 221 235 249 252 257 259 252 251 264 269 245 223 218 218 219 218 211 218 225 217 220 220 217 223 221 222 231 227 227 240 252 252 253 251 244 242 238 221 211 233 248 262 266 249 246 248 245 237 235 246 254 260 271 274 285 276 247 263 271 240 184 142 151 147 163 173 178 188 197 210 210 202 198 200 206
268 265 264 265 267 267 259 253 246 245 243 223 217 233 240 246 254 256 256 258 255 251 256 251 237 231 226 224 224 215 219 224 215 219 224 221 225 226 223 230 233 232 235 242 245 246 254 258 243 229 220 217 241 250 262 274 269 260 254 250 240 234 244 256 271 288 298 303 281 245 237 260 265 179 158 162 160 168 174 185 201 204 203 196 185 181 198 225
270 265 263 262 263 264 260 253 247 244 239 221 227 246 243 244 254 253 260 275 269 251 253 251 240 240 238 228 229 223 215 218 218 224 232 230 231 232 224 223 228 225 225 240 254 249 253 264 239 213 223 231 246 259 255 256 266 270 261 257 259 257 257 264 275 279 276 272 260 245 244 251 253 234 210 195 188 183 179 179 179 173 167 166 176 194 215 238
275 270 265 260 262 265 259 249 244 244 238 230 241 251 247 249 256 258 270 284 277 263 260 256 243 242 243 231 229 228 217 217 222 229 236 234 237 238 229 222 216 212 223 248 263 258 255 269 247 215 236 240 240 257 257 254 264 269 266 266 273 268 257 259 275 275 260 257 255 249 249 250 248 232 210 201 192 185 188 183 167 162 167 177 195 215 229 241
277 274 268 263 255 257 255 243 240 242 238 239 247 251 252 257 259 263 274 278 267 260 257 259 254 245 248 244 233 226 224 223 225 234 239 231 230 232 226 223 212 214 237 256 262 257 249 267 265 245 253 254 240 249 260 259 256 254 261 274 278 272 259 249 258 269 263 265 268 264 262 259 259 252 209 194 192 197 200 187 171 164 171 195 216 228 238 247
274 273 278 271 222 234 248 247 242 238 234 240 247 251 255 258 259 261 268 269 263 262 260 258 255 248 248 251 247 237 232 230 227 235 239 228 224 227 223 227 224 226 241 242 250 264 257 263 270 257 261 265 244 240 257 267 262 249 246 257 265 262 260 254 251 254 257 261 270 267 269 273 282 285 219 198 201 213 203 189 186 173 171 203 228 237 249 258
269 271 279 256 223 238 254 251 241 233 232 239 244 249 256 261 263 263 261 258 255 260 264 263 261 260 254 248 250 249 243 242 240 243 247 231 223 242 242 235 230 227 236 238 246 263 264 262 269 266 269 270 249 243 258 273 281 266 244 250 267 262 261 265 259 259 269 275 279 271 271 325 60 73 179 194 213 219 204 195 195 175 175 209 234 246 256 260
262 264 259 242 244 256 261 251 241 233 235 241 245 250 255 259 265 266 260 258 257 258 262 266 268 273 271 255 250 250 246 246 245 248 256 249 240 248 241 227 224 225 232 242 251 260 256 256 267 267 263 261 255 254 264 266 272 277 265 268 285 279 270 269 260 273 293 295 288 289 288 50 92 127 184 188 222 208 193 191 187 175 191 223 243 257 259 255
253 260 254 247 253 261 258 250 242 237 238 242 246 249 252 257 262 261 256 261 266 261 258 263 265 267 270 263 257 255 251 250 248 248 253 255 255 247 217 201 208 218 232 250 278 278 260 252 264 267 263 264 264 264 269 267 260 267 270 268 275 278 275 272 270 284 289 280 277 286 289 114 104 179 233 247 261 193 184 187 186 193 217 237 253 267 266 259
228 242 259 259 259 254 250 246 241 240 242 246 250 251 252 257 261 258 254 256 263 262 256 256 259 260 263 263 263 260 255 257 259 255 255 257 253 240 200 188 202 217 245 257 269 275 267 257 260 268 272 274 274 267 264 261 250 254 266 267 268 272 270 267 273 279 275 273 278 282 277 200 164 228 221 202 195 175 185 191 191 208 229 242 257 271 276 272
217 218 239 266 272 256 241 239 242 245 247 251 254 252 252 255 256 254 254 253 255 258 257 256 258 263 266 266 265 261 258 264 263 257 261 263 249 232 204 200 227 248 269 250 241 251 261 258 255 263 274 276 272 261 254 252 242 242 262 273 272 277 273 265 270 278 274 269 270 271 277 270 192 211 195 194 210 201 196 196 201 217 230 243 260 270 272 272
229 222 221 249 273 272 251 237 240 252 256 257 260 257 253 252 248 249 255 257 256 257 258 257 256 263 270 269 266 263 260 262 263 262 262 257 253 251 243 247 257 251 246 243 238 242 250 256 259 264 271 272 269 267 280 305 287 265 272 278 280 289 285 272 271 276 274 273 271 268 274 280 211 248 262 230 223 224 219 214 216 220 220 229 252 263 265 266
222 248 250 234 246 267 265 242 241 256 261 262 269 269 256 248 247 249 254 258 259 259 260 261 261 266 269 266 266 268 263 259 260 264 260 251 261 267 246 238 251 249 251 251 243 242 247 254 258 262 264 267 275 284 298 313 302 286 280 277 275 282 287 282 276 270 273 285 282 272 277 292 296 302 299 244 222 241 247 231 219 216 213 209 217 240 259 263
179 280 275 238 219 241 264 245 238 253 261 259 264 268 259 251 249 249 251 257 261 259 259 261 260 263 263 261 267 270 267 266 263 262 260 253 255 258 237 220 244 262 267 265 248 243 248 252 252 255 260 264 270 278 285 291 288 282 280 278 275 276 279 272 263 264 272 280 276 273 288 299 303 316 327 319 289 277 272 244 222 217 220 219 215 220 233 242
210 221 264 247 226 227 274 246 226 240 269 268 261 262 260 256 252 249 252 263 271 265 263 265 260 258 260 260 264 268 266 268 266 263 266 262 252 255 258 254 263 269 275 274 249 241 245 253 255 256 260 264 268 273 277 279 279 277 277 278 278 278 277 269 264 269 275 276 275 279 285 287 289 296 304 308 305 294 286 263 241 236 240 242 234 221 215 224
224 211 250 244 222 220 271 255 236 246 278 276 268 265 260 259 260 255 251 257 272 273 264 267 266 263 267 263 263 269 267 263 261 256 256 253 248 256 266 263 261 268 275 279 252 238 240 252 260 263 268 271 270 272 276 276 277 278 274 274 275 275 274 270 268 269 271 273 276 279 280 279 280 283 284 287 290 285 279 268 253 246 245 244 239 232 229 230
246 238 255 229 207 230 287 273 258 273 283 272 273 274 263 264 267 261 253 256 276 288 275 280 284 275 274 268 262 267 260 251 251 248 246 243 242 255 265 262 261 264 266 269 254 243 247 254 267 277 279 278 275 275 276 276 277 278 276 275 276 275 273 272 272 270 267 270 274 277 279 279 280 283 280 280 284 280 271 267 265 258 253 250 247 241 237 234
343 287 239 180 177 295 335 319 283 279 275 263 275 271 257 277 280 269 259 249 264 293 288 295 296 280 276 274 260 255 250 246 245 245 246 245 243 253 263 263 269 274 269 262 249 248 255 261 273 285 282 280 282 280 278 280 279 276 277 280 278 274 273 272 270 269 268 270 275 277 278 280 286 290 284 279 282 282 272 268 270 265 256 255 254 248 241 238
14 17 134 171 119 36 343 329 306 278 263 272 328 307 279 292 289 282 271 253 262 292 282 287 301 291 284 272 256 255 256 254 253 249 246 243 240 248 259 257 261 270 268 260 249 249 255 261 268 278 280 280 283 285 287 292 287 275 275 282 278 271 274 273 268 268 269 270 272 272 273 280 287 287 285 280 273 272 272 271 273 270 255 246 246 247 247 246
Height
3098 3098 3097 3097 3097 3097 3097 3097 3097 3097 3097 3097 3097 3097 3097 3096 3096 3096 3095 3095 3094 3094 3094 3093 3093 3092 3092 3092 3091 3091 3091 3091 3091 3091 3091 3091 3091 3093 3093 3094 3095 3096 3097 3098 3099 3101 3102 3103 3105 3106 3107 3108 3109 3110 3112 3113 3115 3117 3117 3116 3115 3114 3113 3112 3112 3111 3110 3111 3110 3110 3110 3111 3113 3114 3115 3114 3115 3115 3115 3117 3111 3108 3112 3114 3116 3118 3118 3119
3097 3096 3096 3096 3096 3096 3096 3096 3096 3096 3096 3096 3096 3096 3096 3095 3095 3095 3094 3094 3094 3093 3093 3092 3092 3091 3091 3091 3091 3090 3090 3090 3089 3090 3090 3090 3090 3091 3092 3093 3094 3094 3096 3097 3098 3100 3101 3103 3104 3105 3106 3107 3109 3110 3111 3113 3114 3114 3115 3114 3113 3112 3112 3111 3110 3109 3109 3110 3109 3110 3111 3112 3113 3113 3114 3113 3114 3114 3114 3117 3111 3106 3110 3114 3117 3118 3118 3119
3095 3095 3095 3094 3094 3094 3094 3094 3094 3094 3094 3094 3095 3094 3095 3094 3094 3094 3093 3093 3093 3092 3092 3091 3091 3091 3091 3090 3090 3090 3089 3089 3089 3089 3089 3089 3090 3090 3091 3092 3092 3093 3095 3096 3097 3099 3100 3103 3105 3106 3106 3107 3109 3110 3111 3112 3112 3112 3113 3111 3110 3111 3111 3109 3109 3108 3108 3109 3109 3110 3111 3111 3112 3112 3112 3113 3113 3113 3113 3116 3112 3104 3106 3113 3116 3117 3117 3118
3094 3094 3093 3093 3093 3093 3093 3093 3093 3093 3093 3093 3093 3093 3093 3093 3093 3093 3093 3092 3092 3092 3091 3091 3090 3090 3090 3090 3089 3089 3089 3088 3087 3088 3088 3088 3089 3089 3090 3091 3092 3093 3094 3094 3096 3097 3100 3103 3105 3106 3107 3107 3109 3110 3111 3111 3111 3111 3110 3109 3109 3109 3110 3109 3108 3107 3108 3109 3109 3109 3110 3109 3111 3111 3111 3112 3112 3112 3113 3114 3112 3102 3102 3110 3114 3116 3117 3116
3093 3092 3092 3092 3092 3091 3091 3091 3091 3091 3092 3092 3092 3092 3093 3092 3092 3092 3092 3092 3091 3091 3090 3090 3090 3090 3089 3089 3089 3088 3089 3089 3087 3087 3088 3088 3088 3089 3089 3090 3091 3092 3092 3094 3095 3096 3099 3101 3103 3105 3106 3107 3108 3109 3110 3110 3110 3110 3109 3108 3108 3108 3108 3108 3108 3107 3107 3108 3108 3108 3108 3109 3111 3110 3110 3111 3111 3112 3111 3108 3108 3101 3101 3108 3112 3114 3115 3115
3092 3092 3091 3091 3090 3090 3090 3090 3090 3090 3091 3091 3091 3091 3092 3092 3092 3091 3091 3091 3091 3090 3090 3089 3089 3089 3089 3089 3089 3088 3088 3088 3087 3087 3088 3088 3088 3088 3089 3089 3090 3091 3092 3093 3094 3096 3098 3100 3102 3104 3105 3106 3107 3108 3108 3109 3109 3108 3107 3108 3107 3107 3106 3107 3108 3107 3106 3107 3107 3108 3109 3109 3110 3109 3109 3110 3110 3111 3106 3104 3105 3101 3103 3109 3110 3112 3113 3113
3092 3091 3090 3090 3089 3089 3089 3089 3089 3089 3090 3090 3090 3091 3091 3091 3091 3091 3091 3090 3090 3090 3089 3089 3089 3089 3088 3088 3088 3088 3088 3087 3086 3087 3087 3088 3088 3088 3088 3089 3089 3090 3091 3092 3093 3096 3098 3100 3102 3104 3105 3106 3106 3107 3107 3108 3107 3106 3106 3106 3106 3106 3106 3106 3106 3106 3105 3106 3106 3107 3108 3108 3108 3108 3108 3108 3109 3108 3104 3104 3104 3100 3104 3109 3109 3110 3112 3113
3091 3090 3090 3089 3088 3088 3088 3088 3088 3088 3089 3089 3089 3090 3090 3090 3090 3090 3090 3090 3089 3089 3089 3089 3088 3088 3088 3088 3088 3088 3088 3087 3087 3087 3087 3088 3088 3088 3088 3088 3089 3090 3091 3092 3093 3097 3099 3100 3102 3104 3105 3105 3106 3106 3106 3106 3106 3105 3105 3104 3104 3105 3104 3104 3104 3104 3104 3105 3105 3106 3106 3106 3106 3106 3107 3106 3107 3107 3103 3103 3103 3102 3105 3108 3108 3108 3109 3112
3091 3090 3089 3089 3088 3088 3087 3088 3088 3088 3088 3088 3089 3089 3089 3089 3090 3089 3089 3089 3089 3089 3089 3088 3088 3088 3088 3088 3088 3089 3088 3086 3086 3087 3086 3087 3087 3087 3088 3088 3088 3089 3091 3092 3093 3097 3100 3101 3102 3104 3104 3104 3105 3105 3105 3104 3104 3103 3103 3103 3103 3103 3103 3103 3103 3103 3103 3103 3104 3104 3104 3104 3105 3105 3105 3105 3105 3105 3100 3100 3103 3105 3106 3107 3107 3107 3107 3109
3091 3090 3089 3088 3088 3087 3087 3087 3087 3087 3087 3088 3088 3088 3089 3089 3089 3089 3089 3089 3089 3088 3088 3088 3088 3088 3088 3088 3088 3088 3088 3086 3085 3086 3086 3086 3087 3087 3087 3087 3088 3089 3090 3092 3095 3097 3099 3101 3102 3103 3103 3102 3103 3103 3103 3103 3102 3102 3102 3102 3102 3101 3102 3101 3101 3102 3102 3102 3102 3103 3103 3102 3104 3103 3103 3104 3104 3103 3098 3100 3103 3104 3105 3107 3107 3106 3107 3108
3091 3090 3089 3088 3087 3087 3087 3087 3087 3087 3087 3087 3087 3088 3088 3088 3088 3088 3088 3088 3088 3088 3088 3088 3088 3088 3088 3087 3088 3087 3087 3086 3085 3085 3086 3086 3086 3086 3086 3087 3088 3089 3090 3094 3095 3096 3098 3100 3101 3101 3101 3101 3101 3102 3101 3101 3101 3101 3101 3100 3100 3099 3099 3099 3099 3100 3100 3100 3101 3102 3101 3102 3103 3102 3102 3102 3101 3101 3099 3100 3101 3102 3104 3105 3104 3105 3106 3108
3090 3090 3089 3088 3087 3087 3086 3086 3086 3086 3086 3086 3087 3087 3087 3087 3088 3088 3088 3088 3088 3088 3088 3088 3088 3087 3087 3087 3087 3087 3086 3086 3085 3085 3086 3086 3086 3086 3086 3087 3088 3089 3092 3095 3096 3096 3097 3097 3097 3098 3100 3100 3101 3101 3099 3099 3100 3100 3099 3099 3098 3098 3097 3096 3097 3098 3099 3098 3099 3101 3100 3101 3101 3100 3102 3100 3098 3100 3101 3100 3100 3101 3102 3102 3102 3103 3105 3106
3090 3089 3089 3088 3087 3086 3086 3085 3085 3085 3085 3086 3086 3086 3087 3087 3087 3087 3087 3087 3087 3087 3087 3087 3087 3087 3088 3088 3087 3086 3086 3086 3085 3085 3086 3086 3086 3086 3086 3087 3088 3089 3091 3095 3097 3096 3095 3095 3095 3096 3098 3098 3099 3099 3097 3098 3099 3098 3098 3098 3097 3095 3093 3093 3095 3097 3097 3097 3098 3100 3099 3098 3099 3099 3100 3100 3098 3099 3101 3101 3100 3100 3101 3101 3102 3102 3104 3105
3089 3089 3088 3087 3087 3086 3086 3085 3085 3084 3084 3085 3085 3085 3086 3086 3086 3087 3087 3087 3087 3087 3087 3087 3088 3087 3087 3087 3086 3086 3086 3086 3086 3085 3086 3086 3086 3086 3086 3087 3088 3088 3089 3092 3094 3094 3093 3093 3094 3095 3096 3096 3097 3097 3097 3098 3098 3097 3097 3096 3095 3093 3089 3090 3093 3096 3096 3096 3097 3099 3097 3095 3096 3097 3097 3099 3099 3098 3098 3099 3101 3100 3099 3101 3102 3103 3104 3106
3088 3088 3088 3087 3086 3086 3085 3085 3084 3084 3084 3084 3084 3084 3085 3085 3086 3086 3086 3087 3087 3087 3087 3087 3087 3087 3088 3087 3086 3086 3086 3086 3086 3085 3086 3086 3086 3086 3087 3087 3087 3088 3089 3090 3092 3092 3092 3092 3093 3094 3096 3096 3096 3096 3096 3097 3096 3096 3095 3094 3093 3090 3087 3089 3092 3094 3095 3095 3096 3098 3097 3094 3095 3096 3096 3098 3100 3100 3097 3097 3100 3101 3100 3102 3102 3104 3105 3106
3088 3087 3087 3087 3086 3086 3085 3084 3084 3084 3083 3083 3083 3084 3084 3085 3085 3086 3086 3086 3086 3086 3087 3087 3087 3088 3088 3087 3086 3086 3086 3086 3085 3086 3086 3085 3086 3087 3087 3087 3088 3089 3090 3090 3091 3091 3091 3092 3093 3094 3095 3096 3097 3096 3096 3095 3094 3094 3093 3092 3090 3087 3086 3089 3090 3092 3094 3093 3095 3097 3095 3093 3093 3094 3096 3098 3100 3101 3098 3096 3099 3101 3100 3102 3102 3103 3105 3106
3087 3087 3087 3086 3086 3085 3085 3084 3084 3083 3083 3083 3083 3083 3084 3084 3085 3085 3085 3086 3086 3086 3087 3087 3087 3087 3087 3086 3085 3085 3085 3085 3085 3086 3086 3085 3088 3089 3088 3088 3089 3090 3090 3090 3091 3091 3092 3092 3093 3094 3094 3095 3095 3095 3095 3093 3091 3091 3091 3090 3088 3085 3085 3087 3089 3090 3093 3093 3094 3095 3094 3093 3092 3093 3096 3098 3100 3101 3099 3096 3098 3100 3101 3102 3102 3103 3104 3105
3087 3087 3086 3086 3085 3085 3084 3084 3083 3083 3083 3083 3083 3083 3084 3084 3084 3085 3085 3085 3085 3086 3087 3087 3087 3087 3086 3085 3085 3085 3086 3086 3085 3086 3086 3086 3088 3090 3089 3089 3090 3091 3091 3091 3091 3092 3092 3093 3093 3094 3094 3094 3093 3094 3093 3091 3089 3088 3088 3087 3087 3086 3085 3086 3087 3089 3091 3093 3093 3094 3093 3093 3093 3094 3096 3098 3099 3101 3101 3097 3096 3099 3102 3101 3101 3103 3104 3105
3087 3087 3086 3086 3085 3084 3084 3083 3083 3083 3083 3083 3083 3083 3084 3084 3084 3084 3084 3084 3085 3085 3086 3087 3087 3086 3086 3084 3085 3087 3087 3086 3086 3086 3086 3086 3087 3088 3089 3090 3091 3091 3092 3092 3092 3092 3093 3093 3093 3093 3093 3092 3092 3092 3091 3089 3088 3088 3088 3086 3086 3087 3086 3086 3087 3088 3090 3092 3092 3093 3093 3092 3092 3094 3095 3097 3098 3099 3101 3100 3097 3096 3099 3101 3101 3102 3103 3105
3087 3087 3086 3085 3085 3084 3084 3083 3083 3083 3083 3083 3083 3084 3084 3084 3085 3085 3083 3083 3084 3084 3084 3085 3086 3085 3086 3086 3086 3087 3086 3085 3086 3086 3086 3086 3086 3088 3089 3090 3091 3092 3092 3092 3093 3092 3093 3093 3092 3091 3091 3090 3089 3089 3088 3088 3089 3089 3089 3087 3086 3087 3086 3086 3087 3089 3091 3091 3091 3091 3091 3091 3092 3093 3094 3096 3097 3098 3100 3101 3100 3097 3097 3100 3102 3102 3103 3105
3087 3086 3086 3086 3085 3084 3084 3083 3083 3083 3083 3083 3083 3084 3084 3085 3086 3084 3082 3082 3083 3083 3082 3084 3085 3085 3086 3088 3087 3086 3085 3085 3085 3086 3086 3086 3086 3088 3089 3089 3090 3091 3091 3092 3093 3092 3092 3092 3090 3089 3090 3088 3088 3088 3088 3089 3090 3090 3090 3089 3088 3087 3087 3086 3087 3089 3091 3091 3091 3091 3091 3091 3091 3093 3093 3094 3096 3097 3098 3100 3101 3100 3098 3099 3099 3101 3103 3104
3086 3086 3086 3085 3085 3085 3084 3084 3083 3083 3083 3083 3083 3083 3083 3084 3084 3083 3082 3081 3082 3082 3082 3083 3085 3085 3086 3087 3086 3085 3086 3085 3085 3085 3086 3086 3086 3087 3088 3089 3089 3090 3091 3091 3092 3092 3091 3090 3088 3088 3088 3087 3088 3088 3088 3089 3090 3090 3091 3090 3089 3088 3087 3086 3087 3090 3091 3091 3091 3091 3091 3090 3091 3092 3093 3094 3095 3096 3097 3099 3100 3101 3101 3100 3099 3098 3099 3101
3086 3086 3085 3085 3085 3085 3084 3084 3084 3083 3083 3083 3083 3083 3083 3083 3083 3082 3081 3080 3080 3081 3081 3081 3083 3084 3084 3085 3085 3084 3085 3085 3085 3085 3085 3085 3086 3087 3088 3089 3089 3090 3090 3090 3091 3090 3089 3088 3087 3087 3087 3087 3088 3089 3089 3089 3090 3090 3090 3090 3089 3088 3087 3086 3087 3090 3091 3091 3091 3091 3091 3089 3089 3091 3092 3093 3094 3095 3096 3097 3098 3099 3100 3101 3100 3097 3096 3098
3085 3085 3085 3085 3085 3084 3084 3084 3084 3084 3084 3084 3083 3083 3082 3082 3082 3081 3080 3079 3079 3079 3080 3081 3081 3081 3082 3083 3083 3083 3083 3084 3084 3084 3083 3084 3086 3086 3087 3088 3088 3088 3088 3087 3089 3089 3087 3087 3086 3086 3086 3087 3089 3089 3089 3090 3090 3090 3090 3089 3088 3087 3086 3087 3087 3088 3090 3091 3091 3091 3091 3089 3089 3090 3091 3092 3093 3093 3095 3096 3097 3098 3098 3100 3100 3096 3096 3098
3085 3085 3084 3084 3084 3084 3084 3083 3083 3084 3083 3084 3083 3083 3083 3082 3081 3081 3080 3079 3078 3077 3078 3079 3079 3079 3080 3082 3082 3082 3082 3083 3083 3083 3081 3082 3085 3086 3086 3087 3087 3086 3086 3086 3087 3087 3085 3085 3085 3086 3086 3087 3088 3088 3089 3090 3089 3089 3088 3088 3088 3087 3087 3087 3087 3088 3089 3089 3089 3091 3090 3088 3088 3089 3090 3091 3091 3092 3093 3094 3095 3096 3097 3100 3100 3096 3094 3096
3084 3084 3084 3084 3083 3083 3083 3083 3083 3083 3083 3084 3084 3083 3083 3082 3081 3081 3080 3079 3078 3077 3077 3077 3078 3078 3079 3080 3080 3082 3082 3082 3082 3081 3079 3081 3083 3084 3085 3086 3085 3084 3085 3085 3083 3083 3084 3084 3084 3086 3086 3087 3087 3088 3088 3089 3089 3087 3086 3086 3087 3087 3087 3088 3088 3088 3088 3087 3087 3089 3089 3087 3087 3087 3087 3088 3089 3090 3092 3093 3094 3095 3096 3097 3100 3099 3095 3094
3084 3083 3083 3083 3083 3083 3082 3083 3083 3082 3084 3085 3084 3083 3082 3081 3081 3081 3080 3080 3077 3076 3076 3076 3076 3076 3077 3079 3079 3081 3081 3080 3081 3080 3079 3081 3082 3083 3084 3083 3084 3083 3083 3084 3081 3081 3083 3083 3083 3085 3086 3086 3086 3086 3086 3087 3087 3086 3085 3086 3087 3087 3087 3087 3087 3087 3086 3087 3086 3088 3089 3087 3086 3086 3086 3086 3087 3088 3090 3092 3093 3094 3095 3096 3098 3099 3098 3096
3083 3083 3082 3082 3082 3082 3082 3082 3082 3082 3082 3083 3082 3082 3081 3081 3081 3081 3082 3081 3075 3073 3074 3074 3074 3075 3076 3078 3078 3079 3079 3080 3080 3079 3080 3081 3081 3083 3083 3081 3082 3082 3083 3084 3082 3081 3082 3083 3083 3084 3085 3085 3085 3085 3085 3085 3085 3085 3085 3086 3086 3086 3086 3086 3086 3085 3085 3086 3085 3086 3087 3086 3084 3084 3085 3085 3086 3087 3088 3090 3092 3093 3094 3095 3096 3098 3099 3098
3082 3082 3081 3081 3081 3081 3081 3081 3081 3081 3081 3081 3081 3081 3081 3081 3081 3080 3083 3082 3074 3071 3073 3072 3073 3074 3076 3077 3077 3077 3078 3079 3079 3078 3080 3081 3080 3080 3081 3080 3081 3081 3081 3082 3081 3081 3082 3082 3083 3084 3084 3083 3084 3083 3083 3084 3084 3084 3085 3085 3085 3085 3085 3085 3085 3084 3085 3084 3083 3084 3085 3083 3082 3083 3083 3084 3085 3086 3088 3089 3091 3092 3093 3094 3096 3097 3097 3097
3081 3081 3080 3080 3080 3080 3080 3080 3080 3080 3080 3080 3080 3080 3081 3081 3081 3081 3082 3079 3072 3070 3071 3071 3072 3073 3074 3075 3076 3076 3077 3078 3078 3078 3079 3080 3080 3079 3079 3079 3080 3081 3080 3080 3080 3081 3081 3081 3082 3082 3082 3082 3082 3082 3082 3083 3083 3084 3084 3084 3084 3083 3083 3084 3084 3084 3083 3082 3082 3083 3084 3083 3081 3081 3083 3083 3084 3085 3086 3088 3089 3091 3093 3093 3093 3095 3096 3097
3079 3079 3079 3079 3079 3079 3079 3079 3079 3079 3079 3079 3080 3080 3080 3080 3080 3081 3078 3074 3070 3069 3069 3069 3071 3072 3073 3074 3074 3075 3076 3076 3076 3077 3078 3079 3079 3079 3079 3079 3080 3080 3080 3079 3079 3080 3079 3079 3079 3080 3081 3081 3081 3081 3081 3082 3083 3083 3084 3083 3083 3081 3082 3083 3082 3083 3082 3080 3081 3081 3081 3081 3080 3080 3082 3082 3083 3084 3085 3087 3088 3089 3091 3091 3091 3094 3096 3096
3078 3078 3078 3078 3078 3078 3078 3078 3078 3078 3078 3078 3079 3079 3080 3080 3080 3077 3074 3072 3071 3069 3068 3069 3069 3070 3071 3072 3073 3073 3075 3075 3075 3076 3077 3077 3078 3078 3079 3079 3079 3080 3079 3078 3079 3079 3079 3078 3078 3079 3079 3080 3081 3080 3080 3080 3081 3082 3082 3083 3082 3081 3083 3083 3081 3082 3082 3080 3080 3080 3079 3079 3079 3080 3081 3081 3082 3084 3085 3086 3088 3089 3090 3089 3090 3093 3094 3095
3076 3076 3076 3076 3077 3077 3077 3077 3077 3077 3077 3078 3078 3078 3080 3080 3076 3074 3072 3072 3071 3069 3068 3068 3068 3069 3070 3071 3071 3072 3073 3073 3073 3074 3075 3076 3077 3078 3078 3078 3078 3079 3078 3078 3079 3079 3078 3077 3077 3078 3077 3078 3079 3079 3078 3078 3079 3080 3080 3081 3082 3082 3085 3085 3082 3082 3083 3080 3079 3081 3081 3078 3077 3079 3080 3080 3081 3083 3085 3086 3087 3088 3088 3088 3090 3092 3093 3094
3074 3074 3074 3074 3075 3075 3076 3076 3076 3076 3077 3077 3077 3078 3079 3077 3074 3072 3072 3071 3070 3069 3069 3068 3067 3068 3069 3069 3069 3071 3071 3071 3072 3073 3074 3075 3075 3076 3077 3077 3077 3077 3078 3079 3079 3078 3077 3076 3076 3077 3076 3077 3078 3078 3077 3077 3077 3078 3078 3080 3081 3081 3083 3084 3082 3081 3081 3079 3079 3081 3081 3078 3077 3078 3079 3079 3081 3082 3084 3085 3086 3086 3086 3087 3090 3092 3092 3090
3071 3071 3071 3072 3073 3074 3074 3075 3075 3076 3076 3076 3076 3077 3076 3074 3072 3071 3070 3069 3068 3068 3068 3068 3067 3067 3067 3067 3068 3069 3070 3070 3070 3072 3072 3072 3073 3074 3075 3076 3076 3077 3078 3078 3077 3076 3076 3075 3074 3075 3075 3076 3077 3078 3078 3078 3077 3077 3077 3078 3078 3079 3080 3080 3080 3079 3080 3080 3079 3079 3079 3078 3078 3079 3079 3080 3081 3082 3084 3084 3084 3086 3086 3087 3088 3089 3089 3087
3068 3068 3069 3069 3070 3072 3072 3073 3074 3074 3075 3075 3075 3074 3073 3072 3071 3069 3068 3068 3067 3067 3068 3067 3067 3066 3065 3066 3067 3068 3068 3068 3070 3071 3070 3071 3071 3071 3072 3073 3074 3075 3076 3076 3075 3075 3075 3074 3073 3074 3075 3076 3077 3077 3077 3077 3077 3077 3077 3076 3077 3078 3079 3078 3078 3078 3079 3080 3078 3077 3077 3077 3077 3078 3079 3080 3081 3082 3083 3083 3084 3085 3086 3086 3086 3087 3086 3086
3066 3065 3066 3067 3068 3069 3070 3071 3072 3072 3073 3073 3073 3071 3070 3070 3070 3068 3068 3068 3067 3068 3068 3066 3066 3066 3065 3066 3067 3068 3068 3068 3069 3069 3069 3070 3070 3070 3070 3072 3073 3074 3075 3076 3075 3074 3075 3074 3072 3074 3075 3075 3075 3076 3076 3077 3077 3076 3076 3076 3076 3077 3077 3078 3078 3077 3078 3078 3076 3075 3075 3075 3075 3076 3077 3079 3080 3081 3082 3083 3083 3084 3084 3084 3084 3085 3086 3087
3063 3063 3063 3064 3066 3066 3067 3069 3070 3070 3071 3071 3070 3069 3069 3068 3068 3068 3068 3067 3067 3067 3067 3066 3066 3066 3065 3065 3066 3067 3068 3067 3068 3068 3068 3068 3068 3068 3070 3071 3072 3073 3074 3075 3074 3074 3075 3074 3072 3073 3074 3073 3074 3075 3075 3075 3075 3075 3075 3075 3076 3076 3076 3077 3077 3077 3078 3077 3075 3074 3073 3073 3073 3074 3075 3077 3079 3081 3082 3083 3083 3083 3083 3082 3083 3084 3085 3086
3061 3061 3061 3063 3064 3064 3065 3067 3067 3068 3069 3068 3068 3067 3067 3066 3066 3066 3067 3066 3066 3066 3066 3065 3065 3065 3065 3065 3065 3065 3066 3065 3066 3067 3066 3066 3067 3067 3069 3071 3071 3072 3073 3074 3074 3074 3074 3073 3072 3072 3072 3072 3072 3073 3073 3074 3074 3073 3074 3074 3075 3075 3075 3075 3075 3075 3076 3075 3075 3074 3073 3072 3073 3074 3075 3077 3078 3080 3082 3082 3083 3083 3082 3081 3082 3083 3084 3084
3059 3059 3060 3061 3062 3062 3064 3065 3065 3066 3066 3065 3065 3065 3065 3065 3065 3065 3065 3065 3065 3066 3065 3064 3064 3064 3063 3064 3064 3064 3065 3064 3065 3065 3064 3065 3065 3066 3069 3070 3071 3071 3072 3072 3073 3073 3073 3073 3072 3072 3072 3071 3071 3072 3072 3073 3073 3072 3072 3073 3074 3074 3074 3074 3073 3073 3074 3073 3073 3073 3072 3072 3074 3074 3075 3077 3078 3079 3081 3082 3083 3082 3081 3080 3082 3082 3083 3083
3056 3057 3059 3059 3059 3060 3062 3062 3062 3063 3063 3063 3063 3063 3064 3064 3063 3064 3064 3064 3064 3064 3064 3063 3063 3063 3062 3063 3063 3064 3064 3064 3064 3064 3064 3064 3065 3066 3067 3068 3070 3071 3071 3071 3072 3072 3072 3072 3072 3072 3071 3070 3070 3071 3072 3072 3073 3073 3073 3073 3074 3074 3075 3074 3073 3072 3074 3074 3074 3074 3073 3073 3074 3075 3076 3077 3078 3078 3080 3083 3082 3080 3079 3080 3081 3082 3082 3082
3055 3056 3057 3057 3058 3059 3060 3060 3060 3061 3061 3061 3061 3062 3062 3062 3062 3062 3063 3063 3063 3063 3063 3063 3062 3062 3062 3063 3063 3063 3063 3063 3063 3064 3064 3064 3065 3064 3064 3066 3068 3069 3070 3071 3071 3070 3070 3071 3071 3071 3070 3070 3070 3070 3070 3071 3072 3073 3073 3073 3074 3074 3074 3073 3072 3073 3074 3075 3075 3075 3074 3073 3075 3075 3076 3076 3077 3077 3079 3081 3081 3078 3078 3079 3080 3081 3081 3081
3053 3055 3056 3055 3056 3057 3058 3058 3059 3059 3059 3059 3059 3060 3060 3060 3060 3061 3061 3062 3062 3061 3061 3062 3061 3061 3062 3062 3062 3062 3063 3062 3062 3063 3063 3064 3064 3063 3064 3066 3067 3068 3069 3070 3070 3068 3069 3071 3071 3070 3069 3068 3068 3068 3068 3069 3070 3071 3071 3072 3072 3072 3072 3072 3072 3072 3072 3072 3073 3073 3072 3073 3074 3075 3076 3076 3077 3078 3078 3080 3079 3077 3078 3079 3079 3079 3080 3080
3050 3052 3053 3053 3053 3054 3055 3056 3057 3057 3057 3057 3058 3058 3058 3058 3059 3059 3060 3060 3061 3060 3060 3060 3060 3060 3061 3061 3061 3061 3062 3062 3062 3062 3063 3064 3063 3063 3064 3065 3066 3068 3068 3068 3068 3068 3069 3070 3070 3069 3068 3066 3066 3065 3065 3066 3068 3069 3070 3071 3071 3071 3071 3070 3071 3071 3070 3070 3072 3072 3070 3071 3073 3074 3075 3076 3077 3078 3079 3080 3079 3077 3077 3078 3077 3078 3078 3078
3049 3050 3052 3052 3051 3051 3053 3054 3055 3055 3055 3055 3055 3055 3056 3056 3057 3058 3058 3058 3059 3059 3059 3059 3059 3059 3060 3060 3060 3060 3061 3061 3061 3062 3063 3063 3062 3062 3063 3064 3064 3066 3066 3065 3066 3067 3069 3069 3069 3068 3067 3066 3064 3063 3064 3066 3067 3068 3069 3069 3070 3070 3070 3069 3070 3071 3069 3069 3071 3071 3070 3071 3073 3073 3074 3075 3076 3077 3078 3079 3078 3077 3077 3077 3077 3076 3077 3077
3048 3049 3051 3052 3051 3050 3051 3052 3053 3053 3053 3053 3053 3053 3053 3054 3055 3056 3056 3056 3057 3058 3058 3058 3058 3058 3058 3059 3059 3059 3060 3060 3061 3061 3061 3062 3062 3061 3061 3062 3063 3063 3063 3065 3066 3066 3067 3067 3068 3068 3067 3065 3065 3064 3065 3067 3067 3067 3068 3068 3068 3069 3069 3069 3070 3070 3069 3070 3070 3070 3070 3071 3072 3073 3074 3074 3075 3076 3077 3077 3077 3077 3076 3076 3076 3076 3076 3076
3048 3049 3049 3048 3049 3050 3050 3051 3051 3052 3052 3052 3052 3052 3052 3052 3054 3055 3054 3055 3056 3057 3056 3056 3057 3057 3057 3058 3058 3058 3058 3059 3059 3060 3060 3060 3062 3061 3059 3060 3062 3061 3061 3063 3064 3065 3065 3065 3066 3067 3066 3065 3065 3064 3065 3066 3066 3066 3066 3066 3067 3067 3067 3068 3068 3068 3070 3069 3067 3068 3071 3070 3071 3072 3073 3073 3074 3075 3075 3075 3076 3075 3074 3075 3075 3076 3076 3076
3046 3047 3047 3046 3047 3049 3049 3048 3048 3049 3050 3050 3050 3050 3050 3051 3052 3053 3054 3054 3054 3055 3055 3055 3055 3056 3056 3057 3057 3057 3057 3057 3057 3058 3058 3059 3060 3060 3059 3060 3060 3059 3060 3062 3063 3063 3064 3064 3064 3065 3064 3063 3064 3064 3064 3065 3064 3064 3064 3064 3065 3065 3065 3066 3066 3067 3069 3068 3065 3067 3070 3069 3069 3071 3072 3072 3073 3074 3074 3074 3074 3074 3074 3075 3075 3075 3076 3076
3045 3045 3045 3044 3046 3047 3047 3046 3046 3047 3048 3049 3049 3049 3049 3050 3051 3052 3053 3053 3053 3053 3054 3054 3054 3055 3055 3055 3056 3055 3054 3054 3055 3055 3056 3057 3058 3058 3059 3059 3060 3060 3060 3061 3062 3062 3062 3062 3063 3063 3062 3061 3062 3062 3062 3063 3062 3062 3062 3062 3063 3063 3064 3064 3064 3065 3066 3065 3064 3066 3067 3067 3068 3070 3071 3071 3071 3071 3072 3073 3073 3073 3074 3074 3074 3073 3074 3075
3044 3044 3043 3044 3045 3046 3046 3045 3046 3048 3048 3048 3048 3048 3049 3049 3050 3050 3051 3052 3052 3052 3052 3052 3052 3053 3053 3054 3055 3053 3051 3052 3053 3053 3054 3055 3056 3057 3058 3058 3059 3060 3060 3060 3061 3061 3061 3061 3062 3062 3061 3059 3060 3060 3060 3061 3061 3060 3059 3060 3061 3061 3061 3062 3062 3063 3063 3063 3063 3064 3064 3064 3066 3067 3068 3069 3069 3069 3070 3071 3072 3072 3072 3072 3072 3072 3072 3072
3043 3043 3043 3043 3044 3045 3046 3046 3047 3048 3048 3047 3047 3047 3048 3049 3049 3050 3050 3051 3051 3051 3051 3051 3050 3050 3051 3052 3052 3050 3048 3050 3051 3051 3053 3054 3055 3056 3056 3057 3058 3058 3059 3060 3060 3060 3059 3060 3061 3061 3060 3058 3059 3059 3059 3059 3059 3057 3057 3057 3058 3058 3059 3059 3060 3061 3061 3061 3062 3062 3061 3061 3064 3065 3066 3066 3067 3067 3068 3069 3069 3069 3069 3069 3070 3069 3069 3069
3044 3043 3043 3043 3043 3045 3046 3047 3047 3047 3046 3046 3046 3047 3048 3048 3049 3049 3049 3049 3050 3051 3050 3049 3048 3049 3050 3049 3048 3047 3047 3049 3049 3049 3051 3052 3053 3054 3055 3055 3056 3057 3057 3058 3059 3059 3059 3059 3060 3060 3059 3057 3058 3058 3058 3058 3056 3055 3055 3056 3056 3056 3057 3057 3057 3059 3060 3060 3060 3059 3059 3061 3062 3063 3063 3063 3063 3063 3064 3064 3064 3064 3063 3064 3065 3066 3067 3067